Probability
26 24 20 18 19 22 21 18 15 13 10 7 5 4 3 4 5 5 2 1 1 2 3 3 4 6 10 8 4 3 3 2 2 4 4 2 1 1 3 6 7 4 1
27 25 22 20 20 21 20 17 15 11 8 6 5 4 3 3 4 4 3 2 2 3 3 4 4 7 8 7 4 3 3 3 3 4 4 2 0 0 2 4 5 3 2
29 27 24 21 19 18 16 14 12 9 6 6 6 5 3 2 3 3 3 2 2 3 5 6 7 7 8 7 6 4 4 4 5 5 5 3 1 1 1 2 3 3 2
28 27 24 19 17 15 14 13 11 10 8 7 6 4 2 2 3 3 3 3 3 4 6 8 9 9 9 9 8 6 6 6 6 6 6 5 4 3 2 1 1 2 2
23 24 22 19 18 16 14 13 13 13 12 10 8 6 5 4 5 5 5 5 5 6 7 9 9 8 8 8 8 7 6 6 6 6 6 6 5 4 3 2 1 2 2
22 22 22 21 22 20 17 16 16 16 15 12 10 9 8 8 8 6 6 7 8 8 8 9 9 7 6 7 7 6 6 6 6 7 7 6 6 5 4 4 3 3 3
27 26 25 25 24 23 22 22 21 19 17 14 13 11 10 11 9 5 5 8 10 10 10 10 9 8 7 6 6 5 5 5 6 7 7 6 6 6 6 5 4 3 3
30 29 28 26 25 24 24 24 23 21 19 16 14 13 12 11 9 4 4 9 12 12 11 10 10 9 7 6 6 6 6 6 6 7 7 6 6 6 6 6 5 4 3
31 30 28 25 23 23 23 23 23 22 21 17 15 14 14 12 9 4 4 9 12 11 10 9 9 8 5 4 5 7 7 7 6 6 6 6 6 6 6 6 6 5 4
32 30 27 24 22 21 23 24 23 22 21 18 15 15 15 13 8 4 4 8 11 9 7 6 6 4 3 3 4 6 7 6 6 6 5 5 5 5 4 5 6 5 5
34 32 27 23 21 21 24 24 23 21 20 19 16 16 16 12 8 4 3 6 7 6 5 4 3 3 1 1 2 4 4 4 4 5 6 6 5 4 3 4 4 5 5
35 34 30 25 22 23 24 23 21 19 19 17 16 15 14 11 6 3 2 2 3 4 4 3 3 2 1 0 1 1 1 2 3 4 6 6 6 4 3 3 3 4 4
36 36 34 29 26 25 24 22 21 18 16 14 12 11 11 9 4 1 0 0 1 2 2 2 1 1 0 0 0 0 0 2 3 4 5 6 5 5 3 3 2 2 2
36 37 35 30 28 26 24 21 19 17 15 13 10 9 9 7 4 2 1 1 1 1 1 1 0 1 1 1 1 1 1 1 2 3 4 4 4 4 3 1 1 1 1
34 34 31 27 25 24 22 19 16 14 13 11 9 7 7 6 4 3 2 2 2 2 1 0 0 1 2 2 3 3 2 1 1 1 2 2 2 3 2 1 0 0 0
31 30 27 24 22 20 18 16 12 10 7 6 5 5 5 4 2 1 1 2 2 1 1 0 0 2 3 3 4 5 3 1 1 0 1 1 1 1 2 1 0 0 0
27 25 22 21 20 17 16 13 10 7 5 3 2 2 2 2 0 0 0 1 1 0 0 0 1 2 3 4 5 5 3 2 2 1 0 0 0 0 1 1 0 0 0
23 20 19 20 19 17 15 12 10 9 7 5 2 0 0 0 0 0 0 0 0 0 0 0 1 2 4 4 4 4 3 2 2 2 0 0 0 0 0 0 0 0 0
20 18 19 20 19 17 15 12 10 10 10 8 4 1 1 0 0 0 0 1 1 1 1 0 1 3 3 4 3 3 3 3 3 2 1 0 0 0 0 0 0 0 0
20 17 17 20 20 17 15 13 12 11 11 10 6 3 2 1 1 1 1 1 2 3 2 2 2 3 3 3 3 2 2 3 3 3 2 1 0 0 0 0 0 0 0
20 17 16 19 20 17 15 14 13 12 12 10 8 4 3 3 2 2 2 3 3 3 3 3 3 3 3 3 2 1 2 3 3 3 2 1 0 0 0 0 0 0 0
20 19 18 18 18 16 13 13 13 12 12 10 7 4 3 3 3 3 3 3 3 3 3 3 3 3 3 3 2 2 3 3 3 3 2 1 0 0 0 0 0 0 0
18 18 17 16 16 14 12 12 12 12 11 9 6 4 3 3 3 3 3 3 3 3 3 3 3 3 3 3 3 3 3 3 3 3 1 0 0 0 0 0 0 0 0
15 15 14 13 14 14 12 11 11 11 10 8 6 4 3 3 3 3 3 3 3 3 3 3 3 3 3 3 3 3 3 2 2 2 1 0 0 0 0 0 0 0 0
14 14 13 13 14 14 13 11 9 9 8 7 6 4 3 3 3 3 3 3 3 3 3 3 3 3 3 3 3 2 1 1 1 1 1 0 0 0 0 0 0 0 0
13 13 13 13 13 13 12 10 8 7 6 5 5 4 3 3 3 3 3 3 3 3 3 3 3 3 3 3 3 1 0 0 0 0 1 0 0 0 0 0 0 0 0
Wind_Speed
6 5 5 5 4 3 2 1 1 1 1 1 0 1 1 1 1 1 1 1 1 1 1 1 1 2 1 0 0 0 1 1 2 3 3 3 3 2 3 3 3 3 5
7 6 5 5 5 4 3 2 2 2 1 1 1 1 1 1 1 1 1 2 1 1 1 1 1 0 1 1 1 1 1 1 2 4 3 3 3 3 3 2 3 3 4
7 7 6 5 5 4 4 3 2 2 2 2 1 1 1 1 1 1 1 1 2 2 2 2 1 1 1 1 1 1 1 2 2 3 4 3 2 2 3 3 3 1 3
7 7 7 6 5 5 4 4 3 3 2 2 2 1 1 1 1 1 1 1 2 2 2 2 2 1 1 1 1 1 1 2 2 3 4 3 3 2 2 2 3 2 1
8 7 7 6 6 5 5 4 4 3 3 2 2 2 2 2 2 1 1 1 2 2 2 2 3 4 5 3 2 1 1 1 2 2 3 3 2 2 2 1 2 2 2
8 8 7 7 7 6 6 5 4 4 3 3 2 2 2 2 4 4 2 2 2 2 2 3 4 4 5 5 5 5 3 1 1 1 2 2 3 2 1 1 2 2 2
9 8 8 7 7 6 6 6 5 4 4 3 3 2 2 3 4 3 3 1 2 3 3 2 2 4 3 4 5 5 4 4 2 1 1 1 2 2 2 2 1 1 0
9 8 8 8 7 6 6 6 5 4 3 3 3 2 3 3 3 2 0 2 3 3 2 2 2 3 3 3 3 4 3 3 2 1 2 1 2 1 2 2 2 2 2
9 8 8 8 8 7 6 6 5 4 4 3 3 3 3 3 2 1 1 3 3 3 3 2 2 3 4 1 3 4 4 4 5 7 6 4 4 2 0 2 2 3 2
9 9 8 8 8 7 7 6 5 4 4 4 3 3 3 3 3 1 3 2 3 3 3 3 5 4 3 1 2 3 3 3 3 4 4 4 4 4 2 1 1 2 1
9 9 8 8 8 7 7 6 5 5 4 4 4 3 3 3 4 2 2 0 2 2 2 3 4 5 3 1 1 2 1 1 2 3 3 4 3 3 2 1 1 2 2
8 8 8 8 7 7 7 6 6 6 6 5 4 4 4 4 3 3 1 1 2 1 1 2 5 5 3 1 1 3 0 3 2 2 2 2 2 2 2 1 0 1 2
8 8 8 8 7 7 8 8 7 6 5 5 5 5 4 4 5 5 4 2 0 0 2 5 5 5 4 3 2 2 3 2 1 1 1 1 1 1 1 2 2 2 1
8 8 8 8 8 7 6 6 6 6 5 5 5 4 4 4 4 4 4 4 4 3 3 5 5 4 2 2 3 3 2 0 1 1 1 1 1 1 1 1 1 2 2
8 7 7 7 7 7 6 3 4 3 2 3 4 4 3 4 3 2 2 3 3 2 3 3 3 3 3 2 2 2 2 2 1 1 1 1 1 1 1 1 1 2 2
8 8 7 7 6 6 6 5 2 1 3 2 1 2 2 3 6 5 3 2 2 3 3 3 3 3 3 2 2 2 2 2 1 2 2 2 2 2 2 2 2 3 2
7 7 6 6 6 6 6 6 6 4 3 3 3 3 2 4 6 6 5 4 4 5 5 3 3 3 3 3 2 2 2 2 2 2 2 2 2 2 2 2 2 3 3
7 7 6 6 6 6 6 6 6 6 6 5 6 7 7 7 7 7 7 6 5 6 5 4 3 3 3 2 2 2 2 2 3 3 3 3 3 3 3 3 3 3 4
6 6 5 5 5 6 6 6 6 6 6 6 5 6 8 7 7 7 8 6 5 5 5 4 3 3 2 2 2 3 3 3 3 3 3 3 4 4 3 4 3 2 5
5 5 6 6 6 6 6 6 6 6 6 5 5 5 7 7 6 7 7 6 5 4 4 3 3 3 3 2 3 3 3 3 3 4 3 3 4 4 4 5 5 5 4
5 6 8 7 6 6 6 6 5 5 5 5 4 4 5 6 6 6 6 6 5 4 4 3 3 4 3 3 3 3 4 3 3 3 3 3 4 4 4 4 5 5 5
5 6 7 6 5 5 5 5 5 5 5 5 4 5 7 5 4 4 5 4 5 4 4 4 4 3 3 3 3 4 4 4 3 3 4 4 4 5 5 5 5 5 5
5 6 5 5 5 5 6 5 5 5 4 4 4 4 5 5 5 5 5 4 4 4 4 4 4 3 3 3 3 3 4 4 3 4 5 5 5 5 5 6 7 7 6
6 6 6 5 5 5 5 5 5 5 4 4 4 4 4 4 4 4 4 4 4 4 3 3 4 4 5 4 3 3 2 2 4 5 7 7 7 6 6 6 7 7 7
5 5 5 5 5 5 5 5 5 4 4 4 4 4 4 3 3 4 4 3 4 4 4 4 3 4 5 5 4 2 1 1 3 5 6 7 7 7 7 8 7 7 7
5 5 5 4 4 4 4 4 4 4 4 4 3 3 4 4 4 4 4 4 4 4 4 4 4 4 4 4 4 3 3 3 4 5 8 7 7 6 6 7 8 8 8
Wind_Direction
166 165 165 160 155 152 146 144 146 130 114 88 41 45 42 27 6 335 334 336 344 351 354 8 348 327 319 329 230 242 242 189 166 130 117 114 120 120 119 115 115 120 109
159 157 156 152 148 146 140 133 122 115 117 116 99 87 81 60 13 354 346 12 22 16 11 23 18 54 89 73 87 94 96 133 156 139 134 140 145 146 139 140 122 115 110
157 154 151 151 149 148 144 137 134 132 127 115 102 86 68 61 45 32 28 35 44 43 35 45 50 61 77 83 93 105 134 137 141 139 132 133 134 134 141 130 113 110 122
158 156 153 154 152 148 144 142 141 140 135 125 114 98 79 65 58 54 57 62 65 63 53 52 50 58 77 97 111 125 125 134 136 141 137 140 137 142 159 148 139 139 120
161 158 154 151 147 146 145 143 141 142 136 127 116 104 93 83 50 45 92 95 88 82 73 71 64 55 47 42 34 67 135 160 155 146 143 145 142 166 170 176 150 144 126
164 160 154 154 150 151 152 151 148 144 134 126 116 108 89 62 43 26 3 85 88 88 84 83 96 95 89 80 62 51 40 91 127 150 150 147 154 166 160 185 166 181 164
164 160 160 158 155 157 157 153 149 147 143 136 128 120 104 76 56 42 8 74 89 80 79 80 79 90 109 103 102 107 79 54 35 311 134 167 164 160 185 190 183 241 74
165 163 162 162 158 159 159 154 153 154 153 147 140 132 122 97 85 90 353 119 96 91 89 88 91 101 90 103 116 109 103 87 75 80 76 61 91 138 194 202 180 171 178
168 167 167 168 162 165 164 159 158 160 157 155 142 133 121 106 82 83 251 137 116 103 93 80 87 94 65 51 120 114 108 109 93 87 81 84 69 68 332 214 187 203 199
171 169 167 169 168 168 165 162 160 163 162 157 138 133 127 116 102 100 276 157 129 126 119 106 80 72 77 11 131 124 120 111 117 123 125 139 137 129 161 256 240 239 225
168 166 168 170 170 168 164 164 168 171 163 153 144 144 137 121 132 128 310 247 137 140 126 118 97 90 88 22 330 103 103 164 153 147 140 135 135 132 142 135 322 308 309
168 169 171 171 171 165 166 169 175 176 169 164 163 168 155 146 139 145 149 3 338 123 105 99 102 113 109 92 60 82 109 249 180 150 136 124 128 121 114 112 58 342 347
169 172 173 173 170 170 174 174 181 189 190 179 179 180 166 155 147 153 159 149 331 310 68 71 100 139 153 148 125 150 214 223 167 161 138 125 115 92 124 150 160 166 188
174 175 173 175 174 173 181 185 192 190 192 189 188 186 173 167 165 163 172 170 173 179 152 125 138 156 194 123 151 183 221 290 280 208 173 152 146 161 199 200 217 217 214
173 176 179 181 176 175 182 185 201 184 195 210 198 192 186 182 149 150 209 190 193 162 165 173 175 172 184 180 181 184 202 188 209 241 230 210 204 206 207 227 266 270 267
180 181 184 184 178 181 177 171 92 123 131 144 336 296 171 124 139 158 176 160 136 160 212 200 196 202 201 196 199 194 198 206 225 233 237 248 247 239 236 236 244 260 272
187 182 184 185 179 185 186 185 178 166 168 189 202 217 215 164 164 174 179 175 173 184 215 220 218 218 216 217 216 214 209 199 223 239 240 246 248 252 256 256 254 257 266
189 179 186 183 184 187 190 195 192 186 184 187 192 194 191 188 183 180 176 180 185 204 226 223 219 221 224 227 226 230 228 218 224 240 245 249 250 251 254 262 262 273 277
187 179 183 182 188 189 192 200 200 200 196 185 177 169 181 183 183 185 188 213 211 209 217 218 217 217 218 221 228 233 233 232 237 244 239 245 249 252 259 268 269 253 269
185 174 185 191 192 192 196 202 202 202 205 200 195 179 165 182 191 184 199 218 223 219 217 212 212 215 212 212 221 230 237 238 238 245 247 251 254 259 260 262 270 269 261
186 177 188 199 197 197 199 205 206 208 210 207 200 169 177 202 202 197 200 208 218 219 213 213 213 215 212 212 219 231 240 242 243 253 252 252 256 261 267 270 271 272 275
192 192 196 199 197 199 203 206 208 208 209 211 197 164 177 214 208 201 206 209 213 214 209 212 217 217 217 216 223 234 241 246 246 251 259 260 258 258 261 264 267 271 272
199 195 196 200 202 189 199 205 204 206 206 202 197 188 186 207 212 210 209 210 211 208 203 207 212 210 206 220 229 237 246 252 257 261 263 261 262 262 263 264 264 266 268
199 198 200 197 200 199 197 199 202 206 207 204 201 203 200 203 212 211 211 207 205 202 200 202 207 205 206 215 220 222 240 272 269 256 257 263 263 262 263 263 264 268 268
200 199 199 200 202 199 197 198 202 204 206 205 204 205 202 199 201 202 199 198 198 195 193 197 205 208 211 217 221 215 170 244 269 280 259 258 262 265 270 269 269 272 271
200 195 193 194 198 199 197 198 200 200 201 199 196 199 200 197 195 196 194 196 197 193 200 201 201 204 210 212 208 200 191 217 244 269 270 264 264 266 270 269 270 270 271